sat.trackr.live / text

‹ back to catalog

STARLINK-5941

NORAD 56013 · 2023-042AD

PAYLOAD ACTIVE UNKNOWN

§ Identity

Operator
Country
US
Launch date
2023-03-24
Launch site
AFETR
Launch vehicle
Mass (kg)
RCS (m²)

Purposes: comms

External: N2YO · Heavens-Above · Gunter

§ Orbital elements

Epoch: 2026-05-24T23:18:08.287200Z

Period
94.27 min
Inclination
43.0037°
Eccentricity
0.0001764
Mean motion
15.27577131 rev/d
Perigee alt
481.8 km
Apogee alt
484.3 km
Semi-major
6,861.2 km
B*
2.2005e-5
RAAN
348.9724°
Arg perigee
258.2027°
Mean anomaly
101.8626°
Rev number
17,453

§ Raw data

STARLINK-59411 56013U 23042AD  26144.97092925  .00000343  00000+0  22005-4 0  99982 56013  43.0037 348.9724 0001764 258.2027 101.8626 15.27577131174538

JSON: /api/v1/satellites/56013 · /tle

For live sub-satellite position, see the globe view (requires WebGL).

§ Visibility from observer

Set your observer location to see the next 7 days of passes ≥ 10°. The values pass through the URL so the page stays shareable.

No JS? Fill the form by hand. The geolocation button needs JavaScript.